{"data":{"norad_id":66148,"intl_designator":"2025-240C","name":"STARLINK-35081","alt_names":[],"object_type":"PAYLOAD","status":"ACTIVE","operator":null,"country":"US","launch_date":"2025-10-25","launch_site_code":"AFWTR","launch_vehicle":null,"mission":null,"orbit_class":"UNKNOWN","rcs_meters":null,"size_class":null,"mass_kg":null,"dimensions":null,"purposes":["comms"],"wikipedia_slug":null,"has_3d_model":false,"image_url":null,"decayed_at":null,"tle_current":{"epoch":"2026-05-25T01:51:28.820160Z","epoch_age_seconds":71645,"freshness":"FRESH","line1":"1 66148U 25240C   26145.07741690  .00010179  00000+0  31203-3 0  9999","line2":"2 66148  53.1590  67.2944 0001403 105.1716 254.9441 15.34395483 33696","mean_motion":15.34395483,"eccentricity":0.0001403,"inclination_deg":53.159,"raan_deg":67.2944,"arg_perigee_deg":105.1716,"mean_anomaly_deg":254.9441,"bstar":0.00031203,"rev_number":3369,"period_min":93.848034353214,"perigee_km":461.75689394666,"apogee_km":463.67643748525,"semimajor_km":6840.853665716,"source":"CELESTRAK","updated_at":"2026-05-25T13:38:21.068868Z"}}}